SCP
0 0 0 0 0 0 0 0 0 0 0 0 0 0 0 0 0 0 0 0 0 0
0 0 0 0 0 0 0 0 0 0 0 0 0 0 0 0 0 0 0 0 0 0
0 0 0 0 0 0 0 0 0 0 0 0 0 0 0 0 0 0 0 0 0 0
0 0 0 0 0 0 0 0 0 0 0 0 0 0 0 0 0 0 0 0 0 0
0 0 0 0 0 0 0 0 0 0 0 0 0 0 0 0 0 0 0 0 0 0
0 0 0 0 0 0 0 0 0 0 0 0 0 0 0 0 0 0 0 0 0 0
0 0 0 0 0 0 0 0 0 0 0 0 0 0 0 0 0 0 0 0 0 0
1 1 0 0 0 0 0 0 0 0 0 0 0 0 0 0 0 0 0 0 0 0
2 1 1 0 0 0 0 0 0 0 0 0 0 0 0 0 0 0 0 0 0 0
2 1 0 0 0 0 0 0 0 0 0 0 0 0 0 0 0 0 0 0 0 0
2 1 0 0 0 0 0 0 0 0 0 0 0 0 0 0 0 0 0 0 0 0
1 0 0 0 0 0 0 0 0 0 0 0 0 0 0 0 0 0 0 0 0 0
0 0 0 0 0 0 0 0 0 0 0 0 0 0 0 0 0 -0 -0 0 0 0
0 0 0 0 0 0 0 0 0 0 0 0 0 0 0 0 0 -0 -0 0 0 0
Wind_Speed_500mb
71 76 64 49 53 51 53 55 52 45 38 31 25 18 8 7 2 11 7 9 8 1
80 83 73 51 54 54 50 54 55 47 38 32 26 17 9 9 7 7 3 5 10 14
87 88 59 50 54 58 52 53 53 48 42 35 28 20 18 14 8 8 6 9 15 15
91 81 58 56 59 60 61 61 58 55 49 39 31 22 22 18 12 12 14 12 10 10
81 68 63 67 64 63 69 62 67 63 54 41 36 27 15 10 10 13 13 14 10 5
68 63 63 72 66 69 69 63 64 62 54 44 38 19 15 7 15 12 18 15 8 4
65 57 49 57 68 77 68 69 70 65 54 40 34 23 18 22 19 12 19 8 10 4
55 52 43 48 63 76 74 74 72 63 47 41 34 19 21 18 7 10 11 12 8 9
62 58 49 49 66 80 79 76 71 61 53 51 34 32 32 19 7 15 14 11 6 12
73 68 63 60 71 81 87 80 76 67 62 54 33 39 27 13 20 29 23 18 16 11
77 69 68 71 75 82 85 84 81 74 66 46 39 34 28 27 28 26 22 22 25 13
70 68 73 80 83 81 86 89 84 76 67 47 41 30 31 35 38 28 23 14 12 7
56 69 77 81 90 89 85 88 81 68 52 51 39 38 43 48 39 31 24 14 18 7
54 65 79 84 89 82 84 82 69 61 60 49 47 48 51 46 48 37 38 31 30 18
Wind_Direction_500mb
234 231 225 229 219 221 217 210 204 201 201 197 196 184 209 215 264 330 322 299 343 173
230 225 222 217 219 224 220 214 206 207 204 200 202 198 198 205 230 300 289 258 290 297
222 223 221 215 221 215 221 211 204 205 202 207 205 196 188 203 257 309 198 254 272 287
218 217 221 223 218 213 210 214 210 205 204 214 205 192 181 190 224 239 274 266 265 280
218 220 224 221 214 211 208 216 212 204 205 216 204 191 188 219 263 217 240 251 287 261
225 221 218 216 211 211 212 214 205 203 206 211 208 198 239 167 199 226 250 263 236 240
225 223 220 215 211 211 213 210 201 201 205 226 202 206 208 206 232 264 236 232 197 170
228 231 220 210 207 209 213 211 205 202 208 212 202 218 202 214 185 241 221 156 194 239
229 228 222 215 202 204 209 209 208 208 215 200 206 191 194 212 129 153 159 161 204 248
222 226 222 218 207 211 212 211 208 207 200 198 198 188 182 144 168 174 182 193 213 234
221 224 218 217 214 211 212 209 207 201 200 198 187 188 159 177 184 195 194 206 221 224
227 233 228 218 213 212 209 205 200 196 192 186 182 181 172 177 191 198 201 216 176 195
232 237 226 220 210 209 210 204 194 187 183 174 174 174 181 183 199 181 190 211 228 268
230 225 219 213 208 210 204 196 183 179 176 175 175 184 187 185 181 187 192 218 237 246
Wind_Speed_850mb
71 76 64 49 53 51 53 55 52 45 38 31 25 18 8 7 2 11 7 9 8 1
80 83 73 51 54 54 50 54 55 47 38 32 26 17 9 9 7 7 3 5 10 14
87 88 59 50 54 58 52 53 53 48 42 35 28 20 18 14 8 8 6 9 15 15
91 81 58 56 59 60 61 61 58 55 49 39 31 22 22 18 12 12 14 12 10 10
81 68 63 67 64 63 69 62 67 63 54 41 36 27 15 10 10 13 13 14 10 5
68 63 63 72 66 69 69 63 64 62 54 44 38 19 15 7 15 12 18 15 8 4
65 57 49 57 68 77 68 69 70 65 54 40 34 23 18 22 19 12 19 8 10 4
55 52 43 48 63 76 74 74 72 63 47 41 34 19 21 18 7 10 11 12 8 9
62 58 49 49 66 80 79 76 71 61 53 51 34 32 32 19 7 15 14 11 6 12
73 68 63 60 71 81 87 80 76 67 62 54 33 39 27 13 20 29 23 18 16 11
77 69 68 71 75 82 85 84 81 74 66 46 39 34 28 27 28 26 22 22 25 13
70 68 73 80 83 81 86 89 84 76 67 47 41 30 31 35 38 28 23 14 12 7
56 69 77 81 90 89 85 88 81 68 52 51 39 38 43 48 39 31 24 14 18 7
54 65 79 84 89 82 84 82 69 61 60 49 47 48 51 46 48 37 38 31 30 18
Wind_Direction_850mb
234 231 225 229 219 221 217 210 204 201 201 197 196 184 209 215 264 330 322 299 343 173
230 225 222 217 219 224 220 214 206 207 204 200 202 198 198 205 230 300 289 258 290 297
222 223 221 215 221 215 221 211 204 205 202 207 205 196 188 203 257 309 198 254 272 287
218 217 221 223 218 213 210 214 210 205 204 214 205 192 181 190 224 239 274 266 265 280
218 220 224 221 214 211 208 216 212 204 205 216 204 191 188 219 263 217 240 251 287 261
225 221 218 216 211 211 212 214 205 203 206 211 208 198 239 167 199 226 250 263 236 240
225 223 220 215 211 211 213 210 201 201 205 226 202 206 208 206 232 264 236 232 197 170
228 231 220 210 207 209 213 211 205 202 208 212 202 218 202 214 185 241 221 156 194 239
229 228 222 215 202 204 209 209 208 208 215 200 206 191 194 212 129 153 159 161 204 248
222 226 222 218 207 211 212 211 208 207 200 198 198 188 182 144 168 174 182 193 213 234
221 224 218 217 214 211 212 209 207 201 200 198 187 188 159 177 184 195 194 206 221 224
227 233 228 218 213 212 209 205 200 196 192 186 182 181 172 177 191 198 201 216 176 195
232 237 226 220 210 209 210 204 194 187 183 174 174 174 181 183 199 181 190 211 228 268
230 225 219 213 208 210 204 196 183 179 176 175 175 184 187 185 181 187 192 218 237 246